KZR921 UAAA-OPSD

Flight info

Callsign KZR921
Flight time N/A
Altitude 36000
Route LAKEL1B LAKEL L135 MAMIR P984 SOMUS L142 OSH L145 INLOS/N0457F350 DCT BAVRO DCT AKTIX DCT BIREB
Aircraft A21N/M-SDE2E3FGHIRWXY/LB1

Departure

Time 2026-04-25 16:30
Airport Almaty International Airport (UAAA)

Arrival

Time N/A
Airport Skardu International Airport (OPSD)
Time Latitude Longitude Altitude Speed Heading
2026-04-25 16:05 43.34874 77.01353 2229 ft 0 kts 246°
2026-04-25 16:18 43.34874 77.01354 2229 ft 1 kts 245°
2026-04-25 16:18 43.34876 77.01360 2229 ft 1 kts 245°
2026-04-25 16:18 43.34888 77.01388 2224 ft 2 kts 228°
2026-04-25 16:18 43.34892 77.01396 2224 ft 1 kts 224°
2026-04-25 16:19 43.34898 77.01403 2224 ft 1 kts 218°
2026-04-25 16:19 43.34904 77.01410 2224 ft 1 kts 228°
2026-04-25 16:19 43.34914 77.01425 2224 ft 2 kts 216°
2026-04-25 16:20 43.34941 77.01440 2226 ft 2 kts 178°
2026-04-25 16:20 43.34949 77.01439 2226 ft 0 kts 172°
2026-04-25 16:22 43.34931 77.01453 2224 ft 5 kts 148°
2026-04-25 16:22 43.34886 77.01494 2226 ft 9 kts 152°
2026-04-25 16:22 43.34834 77.01524 2229 ft 6 kts 153°
2026-04-25 16:23 43.34815 77.01589 2226 ft 10 kts 97°
2026-04-25 16:23 43.34809 77.01707 2228 ft 15 kts 93°
2026-04-25 16:23 43.34802 77.01870 2229 ft 19 kts 94°
2026-04-25 16:23 43.34793 77.02077 2229 ft 23 kts 93°
2026-04-25 16:24 43.34782 77.02313 2227 ft 16 kts 94°
2026-04-25 16:24 43.34781 77.02338 2229 ft 4 kts 93°
2026-04-25 16:24 43.34778 77.02409 2229 ft 10 kts 93°
2026-04-25 16:24 43.34772 77.02529 2225 ft 13 kts 94°
2026-04-25 16:25 43.34800 77.02647 2227 ft 0 kts 52°
2026-04-25 16:25 43.34800 77.02648 2227 ft 1 kts 52°
2026-04-25 16:29 43.34830 77.02706 2223 ft 35 kts 55°
2026-04-25 16:29 43.35174 77.03407 2225 ft 135 kts 58°
2026-04-25 16:30 43.35837 77.04731 2275 ft 199 kts 56°
2026-04-25 16:30 43.36657 77.06319 3099 ft 209 kts 56°
2026-04-25 16:30 43.37536 77.08010 3958 ft 225 kts 55°
2026-04-25 16:30 43.38464 77.09819 4801 ft 240 kts 56°
2026-04-25 16:31 43.39426 77.11805 5503 ft 260 kts 57°
2026-04-25 16:31 43.40436 77.13932 6576 ft 268 kts 57°
2026-04-25 16:31 43.41482 77.16080 7730 ft 275 kts 51°
2026-04-25 16:31 43.42972 77.17785 8459 ft 279 kts 25°
2026-04-25 16:32 43.44818 77.18439 8798 ft 278 kts 358°
2026-04-25 16:32 43.46705 77.17883 8965 ft 275 kts 330°
2026-04-25 16:32 43.48278 77.16392 9295 ft 283 kts 319°
2026-04-25 16:32 43.49773 77.14641 9820 ft 285 kts 318°
2026-04-25 16:33 43.51323 77.12895 10345 ft 287 kts 321°
2026-04-25 16:33 43.52881 77.11153 10830 ft 287 kts 312°
2026-04-25 16:33 43.53953 77.08885 11350 ft 285 kts 289°
2026-04-25 16:33 43.54293 77.06202 11862 ft 286 kts 272°
2026-04-25 16:34 43.54361 77.03452 12401 ft 287 kts 272°
2026-04-25 16:34 43.54428 77.00715 12934 ft 288 kts 272°
2026-04-25 16:34 43.54487 76.98870 13294 ft 289 kts 273°
2026-04-25 16:34 43.55107 76.95255 14027 ft 310 kts 295°
2026-04-25 16:35 43.55921 76.93509 14366 ft 328 kts 308°
2026-04-25 16:35 43.57574 76.91209 14875 ft 351 kts 314°
2026-04-25 16:35 43.59370 76.88795 15385 ft 369 kts 313°
2026-04-25 16:35 43.61233 76.86202 15915 ft 384 kts 311°
2026-04-25 16:36 43.63091 76.83544 16436 ft 389 kts 311°
2026-04-25 16:36 43.64335 76.81740 16786 ft 391 kts 311°
2026-04-25 16:36 43.66865 76.78049 17515 ft 394 kts 310°
2026-04-25 16:36 43.68766 76.75276 18078 ft 396 kts 310°
2026-04-25 16:37 43.70456 76.72292 18604 ft 397 kts 297°
2026-04-25 16:37 43.71468 76.68730 19105 ft 398 kts 282°
2026-04-25 16:37 43.71771 76.64950 19590 ft 401 kts 270°
2026-04-25 16:37 43.71491 76.61079 20104 ft 405 kts 259°
2026-04-25 16:38 43.70656 76.57395 20609 ft 410 kts 248°
2026-04-25 16:38 43.69278 76.53916 21134 ft 415 kts 238°
2026-04-25 16:38 43.67383 76.50870 21667 ft 422 kts 224°
2026-04-25 16:38 43.64971 76.48528 22209 ft 431 kts 211°
2026-04-25 16:39 43.62129 76.46997 22765 ft 440 kts 197°
2026-04-25 16:39 43.59070 76.46410 23333 ft 449 kts 184°
2026-04-25 16:39 43.55943 76.46784 23868 ft 458 kts 171°
2026-04-25 16:39 43.52867 76.48122 24357 ft 466 kts 159°
2026-04-25 16:40 43.50073 76.50330 24838 ft 473 kts 146°
2026-04-25 16:40 43.47588 76.53411 25349 ft 481 kts 134°
2026-04-25 16:40 43.45606 76.57170 25850 ft 488 kts 121°
2026-04-25 16:40 43.44139 76.61384 26377 ft 492 kts 116°
2026-04-25 16:41 43.42543 76.65501 26900 ft 491 kts 126°
2026-04-25 16:41 43.40425 76.69180 27447 ft 489 kts 136°
2026-04-25 16:41 43.35349 76.75409 28559 ft 487 kts 145°
2026-04-25 16:42 43.32702 76.78221 29126 ft 486 kts 146°
2026-04-25 16:42 43.29961 76.80942 29713 ft 482 kts 152°
2026-04-25 16:42 43.26998 76.82976 30287 ft 475 kts 163°
2026-04-25 16:42 43.23825 76.84234 30763 ft 469 kts 174°
2026-04-25 16:43 43.20611 76.84695 31137 ft 464 kts 184°
2026-04-25 16:43 43.17413 76.84379 31508 ft 459 kts 194°
2026-04-25 16:43 43.14325 76.83318 31900 ft 453 kts 204°
2026-04-25 16:43 43.11452 76.81573 32284 ft 447 kts 213°
2026-04-25 16:44 43.08892 76.79253 32673 ft 440 kts 220°
2026-04-25 16:44 43.07286 76.77554 32943 ft 438 kts 220°
2026-04-25 16:44 43.04079 76.74195 33468 ft 435 kts 219°
2026-04-25 16:44 43.01637 76.71698 33877 ft 434 kts 219°
2026-04-25 16:45 42.99224 76.69265 34266 ft 431 kts 219°
2026-04-25 16:45 42.96824 76.66863 34611 ft 429 kts 218°
2026-04-25 16:45 42.94435 76.64395 34976 ft 426 kts 222°
2026-04-25 16:45 42.92288 76.61669 35343 ft 422 kts 229°
2026-04-25 16:46 42.90422 76.58575 35720 ft 418 kts 237°
2026-04-25 16:46 42.88933 76.55228 36085 ft 416 kts 244°
2026-04-25 16:46 42.87734 76.51656 36232 ft 419 kts 247°
2026-04-25 16:46 42.86966 76.49221 36247 ft 421 kts 247°
2026-04-25 16:47 42.84217 76.40659 36234 ft 420 kts 246°
2026-04-25 16:47 42.81805 76.33443 36224 ft 421 kts 245°
2026-04-25 16:48 42.79354 76.26215 36220 ft 419 kts 245°
2026-04-25 16:48 42.76902 76.19011 36213 ft 420 kts 245°
2026-04-25 16:49 42.74451 76.11807 36206 ft 419 kts 245°
2026-04-25 16:49 42.71994 76.04593 36205 ft 419 kts 245°
2026-04-25 16:50 42.69544 75.97416 36207 ft 419 kts 245°
2026-04-25 16:50 42.67096 75.90258 36205 ft 421 kts 245°
2026-04-25 16:51 42.64660 75.83152 36202 ft 419 kts 244°
2026-04-25 16:51 42.62629 75.77249 36201 ft 419 kts 244°
2026-04-25 16:52 42.59760 75.68924 36204 ft 418 kts 244°
2026-04-25 16:52 42.57278 75.61746 36204 ft 418 kts 244°
2026-04-25 16:53 42.53564 75.51023 36214 ft 418 kts 244°
2026-04-25 16:54 42.51076 75.43876 36215 ft 419 kts 244°
2026-04-25 16:54 42.48603 75.36783 36219 ft 417 kts 244°
2026-04-25 16:55 42.46111 75.29658 36229 ft 418 kts 244°
2026-04-25 16:55 42.43617 75.22532 36238 ft 417 kts 245°
2026-04-25 16:56 42.41442 75.15304 36252 ft 417 kts 250°
2026-04-25 16:56 42.39528 75.07812 36264 ft 419 kts 250°
2026-04-25 16:57 42.37650 75.00413 36276 ft 417 kts 250°
2026-04-25 16:57 42.35747 74.92958 36281 ft 418 kts 250°
2026-04-25 16:58 42.33833 74.85514 36287 ft 418 kts 250°
2026-04-25 16:58 42.31910 74.78094 36295 ft 419 kts 250°
2026-04-25 16:59 42.29992 74.70721 36294 ft 417 kts 250°
2026-04-25 16:59 42.28034 74.63218 36296 ft 416 kts 250°
2026-04-25 17:00 42.26109 74.55862 36297 ft 417 kts 250°
2026-04-25 17:00 42.24176 74.48497 36289 ft 416 kts 250°
2026-04-25 17:01 42.22234 74.41120 36289 ft 416 kts 250°
2026-04-25 17:01 42.20301 74.33807 36283 ft 416 kts 250°
2026-04-25 17:02 42.18360 74.26482 36279 ft 416 kts 250°
2026-04-25 17:02 42.16409 74.19131 36277 ft 417 kts 250°
2026-04-25 17:03 42.14453 74.11795 36275 ft 416 kts 249°
2026-04-25 17:03 42.12492 74.04462 36279 ft 416 kts 249°
2026-04-25 17:04 42.10511 73.97090 36285 ft 417 kts 249°
2026-04-25 17:04 42.08566 73.89870 36273 ft 415 kts 249°
2026-04-25 17:05 42.06442 73.82535 36274 ft 415 kts 242°
2026-04-25 17:05 42.03036 73.76310 36275 ft 418 kts 225°
2026-04-25 17:05 42.00773 73.73834 36267 ft 421 kts 216°
2026-04-25 17:06 41.95531 73.70161 36266 ft 426 kts 208°
2026-04-25 17:06 41.90200 73.66694 36268 ft 425 kts 210°
2026-04-25 17:07 41.85140 73.63262 36270 ft 424 kts 211°
2026-04-25 17:07 41.79822 73.59604 36270 ft 428 kts 211°
2026-04-25 17:08 41.75402 73.56568 36276 ft 428 kts 211°
2026-04-25 17:08 41.70107 73.52959 36283 ft 427 kts 211°
2026-04-25 17:09 41.64816 73.49371 36259 ft 428 kts 211°
2026-04-25 17:09 41.59496 73.45774 36261 ft 428 kts 211°
2026-04-25 17:10 41.54156 73.42170 36281 ft 431 kts 211°
2026-04-25 17:10 41.48819 73.38580 36273 ft 429 kts 211°
2026-04-25 17:11 41.43481 73.34996 36274 ft 431 kts 211°
2026-04-25 17:11 41.38151 73.31427 36275 ft 430 kts 211°
2026-04-25 17:12 41.32755 73.27820 36272 ft 431 kts 211°
2026-04-25 17:12 41.27426 73.24262 36262 ft 431 kts 211°
2026-04-25 17:13 41.22977 73.21294 36252 ft 432 kts 211°
2026-04-25 17:13 41.16669 73.17094 36243 ft 432 kts 211°
2026-04-25 17:14 41.11284 73.13517 36232 ft 433 kts 211°
2026-04-25 17:14 41.05894 73.09947 36226 ft 432 kts 211°
2026-04-25 17:15 41.00531 73.06399 36208 ft 433 kts 211°
2026-04-25 17:15 40.95125 73.02831 36205 ft 433 kts 211°
2026-04-25 17:16 40.89725 72.99276 36195 ft 434 kts 211°
2026-04-25 17:16 40.84312 72.95717 36188 ft 434 kts 210°
2026-04-25 17:17 40.78986 72.92220 36186 ft 435 kts 210°
2026-04-25 17:17 40.73569 72.88670 36183 ft 435 kts 210°
2026-04-25 17:18 40.68136 72.85117 36181 ft 436 kts 210°
2026-04-25 17:18 40.62604 72.81880 36182 ft 441 kts 201°
2026-04-25 17:19 40.56455 72.80831 36182 ft 455 kts 182°
2026-04-25 17:19 40.50113 72.81857 36184 ft 459 kts 178°
2026-04-25 17:20 40.43790 72.82908 36193 ft 459 kts 179°
2026-04-25 17:20 40.37449 72.83837 36209 ft 458 kts 180°
2026-04-25 17:21 40.31115 72.84732 36233 ft 459 kts 180°
2026-04-25 17:21 40.24746 72.85661 36268 ft 458 kts 180°
2026-04-25 17:22 40.19475 72.86432 36286 ft 459 kts 180°
2026-04-25 17:22 40.12097 72.87522 36304 ft 458 kts 180°
2026-04-25 17:23 40.05738 72.88464 36325 ft 459 kts 180°
2026-04-25 17:23 39.99378 72.89410 36338 ft 459 kts 180°
2026-04-25 17:24 39.93044 72.90351 36348 ft 458 kts 180°
2026-04-25 17:24 39.86742 72.91283 36365 ft 458 kts 180°
2026-04-25 17:25 39.80398 72.92224 36359 ft 458 kts 180°
2026-04-25 17:25 39.74082 72.93156 36374 ft 457 kts 180°
2026-04-25 17:26 39.67731 72.94091 36375 ft 458 kts 180°
2026-04-25 17:26 39.61375 72.95018 36383 ft 465 kts 179°
2026-04-25 17:27 39.54811 72.95945 36394 ft 481 kts 179°
2026-04-25 17:27 39.50387 72.96592 36399 ft 482 kts 178°
2026-04-25 17:28 39.41505 72.97916 36407 ft 481 kts 178°
2026-04-25 17:28 39.34781 72.98915 36410 ft 482 kts 178°
2026-04-25 17:29 39.28150 72.99890 36419 ft 482 kts 178°
2026-04-25 17:29 39.21435 73.00876 36421 ft 482 kts 179°
2026-04-25 17:30 39.14768 73.01843 36422 ft 483 kts 179°
2026-04-25 17:30 39.08156 73.02799 36416 ft 481 kts 179°
2026-04-25 17:31 39.01478 73.03771 36406 ft 482 kts 179°
2026-04-25 17:31 38.94809 73.04735 36396 ft 481 kts 179°
2026-04-25 17:32 38.88128 73.05699 36386 ft 481 kts 179°
2026-04-25 17:32 38.81468 73.06661 36384 ft 481 kts 179°
2026-04-25 17:33 38.74804 73.07619 36381 ft 481 kts 179°
2026-04-25 17:33 38.68186 73.08568 36379 ft 481 kts 179°
2026-04-25 17:34 38.61530 73.09529 36373 ft 481 kts 179°
2026-04-25 17:34 38.54866 73.10478 36374 ft 481 kts 179°
2026-04-25 17:35 38.48209 73.11422 36371 ft 481 kts 179°
2026-04-25 17:35 38.41546 73.12367 36378 ft 481 kts 179°
2026-04-25 17:36 38.34848 73.13321 36375 ft 481 kts 179°
2026-04-25 17:36 38.28167 73.14274 36383 ft 482 kts 179°
2026-04-25 17:37 38.21511 73.15216 36373 ft 481 kts 179°
2026-04-25 17:37 38.14860 73.16156 36375 ft 481 kts 179°
2026-04-25 17:38 38.10463 73.16777 36365 ft 479 kts 179°
2026-04-25 17:38 38.01578 73.18028 36360 ft 482 kts 179°
2026-04-25 17:39 37.94945 73.18960 36357 ft 482 kts 179°
2026-04-25 17:39 37.88251 73.19899 36357 ft 482 kts 179°
2026-04-25 17:40 37.81613 73.20829 36355 ft 482 kts 179°
2026-04-25 17:40 37.74950 73.21760 36355 ft 483 kts 179°
2026-04-25 17:41 37.68255 73.22693 36353 ft 483 kts 179°
2026-04-25 17:41 37.61606 73.23622 36348 ft 480 kts 179°
2026-04-25 17:42 37.54927 73.24547 36344 ft 484 kts 179°
2026-04-25 17:42 37.48238 73.25475 36352 ft 483 kts 179°
2026-04-25 17:43 37.41551 73.26401 36354 ft 483 kts 179°
2026-04-25 17:43 37.34861 73.27327 36358 ft 484 kts 179°
2026-04-25 17:44 37.28146 73.28256 36352 ft 484 kts 179°
2026-04-25 17:44 37.21445 73.29180 36349 ft 485 kts 179°
2026-04-25 17:45 37.16963 73.29798 36351 ft 484 kts 179°
2026-04-25 17:45 37.08069 73.31017 36349 ft 484 kts 179°
2026-04-25 17:46 37.02526 73.31776 36346 ft 483 kts 179°
2026-04-25 17:46 36.95774 73.32701 36339 ft 485 kts 179°
2026-04-25 17:47 36.89051 73.33626 36331 ft 485 kts 179°
2026-04-25 17:47 36.82328 73.34543 36325 ft 486 kts 180°
2026-04-25 17:48 36.72268 73.35918 36314 ft 485 kts 180°
2026-04-25 17:49 36.65568 73.36828 36309 ft 487 kts 180°
2026-04-25 17:49 36.58826 73.37742 36306 ft 488 kts 180°
2026-04-25 17:50 36.52066 73.38656 36296 ft 489 kts 180°
2026-04-25 17:50 36.45364 73.39563 36296 ft 490 kts 180°
2026-04-25 17:51 36.38573 73.40480 36282 ft 490 kts 180°
2026-04-25 17:51 36.31766 73.41406 36289 ft 492 kts 180°
2026-04-25 17:52 36.24938 73.42313 36281 ft 492 kts 181°
2026-04-25 17:52 36.18144 73.43224 36283 ft 494 kts 181°
2026-04-25 17:53 36.11288 73.44149 36291 ft 494 kts 181°
2026-04-25 17:53 36.04391 73.45086 36302 ft 495 kts 181°
2026-04-25 17:54 35.97553 73.45987 36284 ft 496 kts 181°
2026-04-25 17:54 35.90676 73.46878 36269 ft 497 kts 181°
2026-04-25 17:55 35.83775 73.47800 36256 ft 498 kts 181°
2026-04-25 17:55 35.76889 73.48723 36244 ft 499 kts 181°
2026-04-25 17:56 35.69963 73.49628 36229 ft 502 kts 182°
2026-04-25 17:56 35.63041 73.50541 36216 ft 502 kts 182°
2026-04-25 17:57 35.56043 73.52521 36214 ft 517 kts 163°
2026-04-25 17:57 35.50015 73.57106 36208 ft 530 kts 142°
2026-04-25 17:58 35.45328 73.64138 36219 ft 536 kts 124°
2026-04-25 17:58 35.41199 73.71757 36214 ft 534 kts 129°
2026-04-25 17:59 35.36636 73.78911 36165 ft 533 kts 133°
2026-04-25 17:59 35.31907 73.85834 36244 ft 534 kts 134°
2026-04-25 18:00 35.27132 73.92889 36286 ft 536 kts 128°
2026-04-25 18:01 35.22832 74.10269 36420 ft 527 kts 83°
2026-04-25 18:01 35.23410 74.14760 36481 ft 523 kts 71°
2026-04-25 18:01 35.24610 74.18917 36436 ft 515 kts 59°
2026-04-25 18:01 35.26396 74.22608 36716 ft 507 kts 48°
2026-04-25 18:02 35.28692 74.25809 36875 ft 496 kts 37°
2026-04-25 18:02 35.36938 74.31425 37030 ft 476 kts 18°
2026-04-25 18:03 35.39951 74.33137 37029 ft 476 kts 12°